FW0079 Weather Reports


Display with metric or nautical units.
time (UTC)temp
F
wind
direction
speed
MPH
gust
MPH
rain 1hr
in
rain 24hr
in
rain mn
in
humidity
%
barometer
mb
20260506050111 49 101 3.0 0.0 0.00 0.00 0.01 69 775.2
20260506044601 50 26 3.0 0.0 0.00 0.00 0.01 64 775.0
20260506043059 50 36 3.0 0.0 0.00 0.00 0.01 64 774.9
20260506041602 50 40 4.0 0.0 0.00 0.00 0.01 62 774.7
20260506040052 52 360 8.0 0.0 0.00 0.00 0.01 56 774.6
20260506034552 51 5 5.0 0.0 0.00 0.00 0.01 58 774.3
20260506033048 50 360 4.0 0.0 0.00 0.00 0.01 61 774.1
20260506031546 50 341 4.0 0.0 0.00 0.00 0.01 65 773.9
20260506030015 50 360 3.0 0.0 0.00 0.00 0.01 70 773.8
20260506024529 50 360 5.0 0.0 0.00 0.00 0.01 69 773.8
20260506023011 51 360 3.0 0.0 0.00 0.00 0.01 71 773.7
20260506021511 53 314 3.0 0.0 0.00 0.00 0.01 69 773.6
20260506020009 54 313 4.0 0.0 0.00 0.00 0.01 66 773.4
20260506014513 54 355 4.0 0.0 0.00 0.00 0.01 64 773.4
20260506013005 55 333 5.0 0.0 0.00 0.00 0.01 64 773.3
20260506011505 55 25 4.0 0.0 0.00 0.00 0.01 64 773.3
20260506010004 55 26 6.0 0.0 0.00 0.00 0.01 59 773.3
20260506004503 54 85 5.0 0.0 0.00 0.00 0.01 60 773.3
20260506003000 55 26 8.0 0.0 0.00 0.00 0.01 58 773.1
20260506001604 54 47 4.0 0.0 0.00 0.00 0.01 61 773.1
20260506000120 53 63 4.0 0.0 0.00 0.00 0.01 61 773.1
20260505234558 53 62 3.0 0.0 0.00 0.00 0.01 60 773.0
20260505233059 53 62 4.0 0.0 0.00 0.00 0.01 61 773.1
20260505231612 53 76 4.0 0.0 0.00 0.00 0.01 58 773.0
20260505230105 53 69 5.0 0.0 0.00 0.00 0.01 58 773.1
20260505224552 52 62 11.0 0.0 0.00 0.00 0.01 62 773.1
20260505223048 52 76 9.0 0.0 0.00 0.00 0.01 61 773.2
20260505221556 52 68 8.0 0.0 0.00 0.00 0.01 63 773.2
20260505220045 52 38 8.0 0.0 0.00 0.00 0.01 67 773.3
20260505214542 51 60 6.0 0.0 0.00 0.00 0.01 69 773.4
20260505213040 51 29 4.0 0.0 0.00 0.00 0.01 71 773.3
20260505211540 49 34 7.0 0.0 0.00 0.00 0.01 71 773.4
20260505210033 49 77 9.0 0.0 0.00 0.00 0.01 74 773.4
20260505204543 49 72 10.0 0.0 0.00 0.00 0.01 76 773.3
20260505203026 48 82 12.0 0.0 0.00 0.00 0.01 79 773.2
20260505201526 47 71 12.0 0.0 0.00 0.00 0.01 83 773.2
20260505200022 46 74 9.0 0.0 0.00 0.00 0.00 88 773.3
20260505194523 45 80 8.0 0.0 0.00 0.00 0.00 92 773.3
20260505193050 45 80 7.0 0.0 0.00 0.00 0.00 91 773.3
20260505191558 43 67 6.0 0.0 0.00 0.00 0.00 88 773.3
20260505190041 42 98 5.0 0.0 0.00 0.00 0.00 85 773.2
20260505184541 41 80 7.0 0.0 0.00 0.00 0.00 83 773.1
20260505183040 41 71 7.0 0.0 0.00 0.00 0.00 82 772.9
20260505181537 40 75 6.0 0.0 0.00 0.00 0.00 81 772.9
20260505180040 40 59 6.0 0.0 0.00 0.00 0.00 81 772.7
20260505174532 40 58 4.0 0.0 0.00 0.00 0.00 81 772.6
20260505173029 39 45 4.0 0.0 0.00 0.00 0.00 81 772.5
20260505171525 39 46 4.0 0.0 0.00 0.00 0.00 82 772.4
20260505170023 39 68 7.0 0.0 0.00 0.00 0.00 82 772.3
20260505164519 38 30 4.0 0.0 0.00 0.00 0.00 83 772.2
20260505163018 38 53 3.0 0.0 0.00 0.00 0.00 84 772.0
20260505161515 38 63 4.0 0.0 0.00 0.00 0.00 85 771.9
20260505153008 37 38 5.0 0.0 0.00 0.00 0.98 88 771.6
20260505151512 36 38 5.0 0.0 0.00 0.00 0.98 89 771.4
20260505124541 34 360 0.0 0.0 0.00 0.00 0.93 93 770.5
20260505123029 34 360 0.0 0.0 0.00 0.00 0.93 93 770.4
20260505121541 35 360 0.0 0.0 0.00 0.00 0.92 93 770.4
20260505120026 35 360 0.0 0.0 0.00 0.00 0.92 93 770.3
20260505114525 34 360 0.0 0.0 0.00 0.00 0.91 92 770.3
20260505113026 34 360 0.0 0.0 0.00 0.00 0.91 93 770.3
20260505111533 34 360 0.0 0.0 0.00 0.00 0.90 92 770.4
20260505101519 34 360 0.0 0.0 0.00 0.00 0.89 92 770.5
20260505100031 34 360 1.0 0.0 0.00 0.00 0.89 92 770.5
20260505094518 34 360 3.0 0.0 0.00 0.00 0.88 93 770.6
20260505093025 33 360 2.0 0.0 0.00 0.00 0.88 93 770.8
20260505091517 34 360 0.0 0.0 0.00 0.00 0.87 92 770.8
20260505090015 33 360 0.0 0.0 0.00 0.00 0.87 92 770.9
20260505084515 33 360 0.0 0.0 0.00 0.00 0.87 92 770.9
20260505083020 33 360 0.0 0.0 0.00 0.00 0.87 92 771.0
20260505081548 33 360 3.0 0.0 0.00 0.00 0.86 93 771.0
20260505080050 33 360 1.0 0.0 0.00 0.00 0.86 93 771.3
20260505074543 33 360 1.0 0.0 0.00 0.00 0.86 93 771.3
20260505073053 32 360 0.0 0.0 0.00 0.00 0.86 92 771.3
20260505071544 32 360 0.0 0.0 0.00 0.00 0.86 92 771.3
20260505070041 32 360 0.0 0.0 0.00 0.00 0.86 92 770.9
20260505064508 33 360 2.0 0.0 0.00 0.00 0.86 92 770.6
20260505063011 33 360 3.0 0.0 0.00 0.00 0.86 93 770.8
20260505061506 33 360 2.0 0.0 0.00 0.00 0.86 93 770.8
20260505060005 32 360 1.0 0.0 0.00 0.00 0.74 92 771.2